Regional Weather Roundup
Issued by NWS

Home | Current Version | Previous Version | Graphics & Text | Print | Product List | Glossary On
Versions: 1 2 3 4 5 6 7 8 9 10 11 12 13 14 15 16 17 18 19 20 21 22 23 24 25 26 27 28 29 30 31 32 33 34 35 36 37 38 39 40 41 42 43 44 45 46 47 48 49 50
000
ASUS43 KTOP 231659
RWRKS

WEATHER ROUNDUP FOR KANSAS
NATIONAL WEATHER SERVICE GOODLAND KS
1200 PM CDT THU OCT 23 2014

NOTE:  "FAIR" INDICATES FEW OR NO CLOUDS BELOW 12,000 FEET WITH NO
SIGNIFICANT WEATHER AND/OR OBSTRUCTIONS TO VISIBILITY.

KSZ001>006-013>018-027>032-041>047-231800-
NORTHWEST KANSAS

CITY           SKY/WX    TMP DP  RH WIND       PRES   REMARKS
GOODLAND       SUNNY     69  46  43 S10       30.15S
HAYS           PTSUNNY   63  55  77 S6        30.12F
HILL CITY      CLOUDY    58  57  97 SW6       30.13S FOG
RUSSELL        MOSUNNY   68  59  73 S6        30.10S
$$

KSZ061>065-074>080-084>089-231800-
SOUTHWEST KANSAS

CITY           SKY/WX    TMP DP  RH WIND       PRES   REMARKS
DODGE CITY     CLOUDY    62  58  86 SE5       30.13F FOG
ELKHART          N/A     65  52  63 NW7         N/A
GARDEN CITY    CLOUDY    64  57  78 E7        30.13S
GREAT BEND     CLOUDY    64  59  82 SW5       30.11F
LIBERAL        CLOUDY    59  55  88 NE7       30.15S
$$

KSZ066>073-081>083-090>101-231800-
SOUTHEAST KANSAS

CITY           SKY/WX    TMP DP  RH WIND       PRES   REMARKS
CHANUTE        PTSUNNY   63  58  83 S15       30.14S
COFFEYVILLE    LGT RAIN  62  58  86 S14       30.15F
HUTCHINSON     PTSUNNY   68  58  70 SW5       30.11F
NEWTON         CLOUDY    64  57  77 SW8       30.14S
PARSONS        CLOUDY    63  58  83 S10       30.16S
WICHITA INTL   CLOUDY    67  60  78 S8        30.12S
WICHITA JABRA  CLOUDY    65  60  84 S8        30.12S
WICHITA MCCONL CLOUDY    65  65 100 S8        30.13R
WINFIELD       CLOUDY    66  59  78 SW14      30.14R
$$

KSZ007>012-019>026-033>040-048>060-102>105-231800-
NORTHEAST KANSAS

CITY           SKY/WX    TMP DP  RH WIND       PRES   REMARKS
CONCORDIA      MOSUNNY   68  59  73 VRB5      30.09F
EMPORIA        CLOUDY    64  61  90 SW13      30.11S
LAWRENCE       CLOUDY    63  59  87 SW14      30.11R
MANHATTAN      MOSUNNY   69  62  78 SW9       30.09F
OLATHE IND     CLOUDY    63  59  87 SW14      30.12R
OLATHE EXE     CLOUDY    63  60  90 SW7G17    30.11R
SALINA         SUNNY     70  60  70 SW6       30.10F
TOPEKA BILLARD CLOUDY    67  62  84 SW10      30.10R
TOPEKA FORBES  CLOUDY    64  61  90 SW7       30.10S
$$



USA.gov is the U.S. government's official web portal to all federal, state and local government web resources and services.